| time (UTC) | temp F | wind direction | speed knots | gust knots | rain 1hr in | rain 24hr in | rain mn in | humidity % | barometer mb |
| 20260503213047 | 77 | 177 | 0.9 | 5.2 | 0.00 | 0.00 | 0.00 | 44 | |
| 20260503212545 | 77 | 22 | 2.6 | 4.3 | 0.00 | 0.00 | 0.00 | 43 | |
| 20260503212042 | 77 | 71 | 0.9 | 4.3 | 0.00 | 0.00 | 0.00 | 43 | |
| 20260503211539 | 76 | 193 | 2.6 | 2.6 | 0.00 | 0.00 | 0.00 | 43 | |
| 20260503211034 | 76 | 267 | 2.6 | 6.1 | 0.00 | 0.00 | 0.00 | 44 | |
| 20260503210532 | 75 | 286 | 1.7 | 2.6 | 0.00 | 0.00 | 0.00 | 45 | |
| 20260503210027 | 76 | 270 | 2.6 | 5.2 | 0.00 | 0.00 | 0.00 | 44 | |
| 20260503205524 | 76 | 181 | 1.7 | 7.0 | 0.00 | 0.00 | 0.00 | 45 | |
| 20260503205021 | 76 | 59 | 2.6 | 4.3 | 0.00 | 0.00 | 0.00 | 44 | |
| 20260503204518 | 77 | 23 | 0.9 | 4.3 | 0.00 | 0.00 | 0.00 | 45 | |
| 20260503204015 | 76 | 336 | 2.6 | 7.8 | 0.00 | 0.00 | 0.00 | 46 | |
| 20260503203512 | 76 | 13 | 3.5 | 4.3 | 0.00 | 0.00 | 0.00 | 44 | |
| 20260503203009 | 75 | 235 | 0.9 | 6.1 | 0.00 | 0.00 | 0.00 | 46 | |
| 20260503202507 | 76 | 331 | 0.9 | 5.2 | 0.00 | 0.00 | 0.00 | 46 | |
| 20260503202004 | 75 | 329 | 2.6 | 6.1 | 0.00 | 0.00 | 0.00 | 46 | |
| 20260503201502 | 76 | 255 | 2.6 | 5.2 | 0.00 | 0.00 | 0.00 | 47 | |
| 20260503200959 | 75 | 179 | 0.0 | 4.3 | 0.00 | 0.00 | 0.00 | 48 | |
| 20260503200455 | 75 | 191 | 0.9 | 5.2 | 0.00 | 0.00 | 0.00 | 48 | |
| 20260503195952 | 75 | 170 | 0.9 | 1.7 | 0.00 | 0.00 | 0.00 | 47 | |
| 20260503195449 | 74 | 146 | 0.9 | 1.7 | 0.00 | 0.00 | 0.00 | 52 | |
| 20260503194945 | 75 | 110 | 0.9 | 6.1 | 0.00 | 0.00 | 0.00 | 49 | |
| 20260503194443 | 76 | 115 | 0.9 | 2.6 | 0.00 | 0.00 | 0.00 | 47 | |
| 20260503193938 | 74 | 155 | 2.6 | 6.1 | 0.00 | 0.00 | 0.00 | 49 | |
| 20260503193434 | 75 | 90 | 0.9 | 6.1 | 0.00 | 0.00 | 0.00 | 50 | |
| 20260503192930 | 73 | 54 | 0.9 | 6.1 | 0.00 | 0.00 | 0.00 | 50 | |
| 20260503192426 | 74 | 355 | 2.6 | 7.0 | 0.00 | 0.00 | 0.00 | 50 | |
| 20260503191922 | 74 | 148 | 0.9 | 7.0 | 0.00 | 0.00 | 0.00 | 51 | |
| 20260503191420 | 76 | 334 | 0.9 | 2.6 | 0.00 | 0.00 | 0.00 | 48 | |
| 20260503190916 | 75 | 92 | 0.9 | 1.7 | 0.00 | 0.00 | 0.00 | 47 | |
| 20260503190414 | 75 | 42 | 3.5 | 5.2 | 0.00 | 0.00 | 0.00 | 47 | |
| 20260503185910 | 77 | 135 | 2.6 | 4.3 | 0.00 | 0.00 | 0.00 | 44 | |
| 20260503185407 | 76 | 127 | 0.9 | 1.7 | 0.00 | 0.00 | 0.00 | 48 | |
| 20260503184906 | 74 | 126 | 0.0 | 1.7 | 0.00 | 0.00 | 0.00 | 48 | |
| 20260503184403 | 73 | 163 | 1.7 | 2.6 | 0.00 | 0.00 | 0.00 | 49 | |
| 20260503183859 | 74 | 5 | 2.6 | 4.3 | 0.00 | 0.00 | 0.00 | 49 | |
| 20260503183355 | 74 | 243 | 1.7 | 2.6 | 0.00 | 0.00 | 0.00 | 49 | |
| 20260503182853 | 73 | 120 | 1.7 | 2.6 | 0.00 | 0.00 | 0.00 | 49 | |
| 20260503182352 | 73 | 163 | 2.6 | 2.6 | 0.00 | 0.00 | 0.00 | 49 | |
| 20260503181848 | 74 | 259 | 1.7 | 2.6 | 0.00 | 0.00 | 0.00 | 49 | |
| 20260503181345 | 73 | 184 | 0.9 | 2.6 | 0.00 | 0.00 | 0.00 | 50 | |
| 20260503180842 | 73 | 81 | 0.9 | 4.3 | 0.00 | 0.00 | 0.00 | 49 | |
| 20260503180340 | 73 | 141 | 0.0 | 1.7 | 0.00 | 0.00 | 0.00 | 51 | |
| 20260503175836 | 72 | 174 | 0.9 | 6.1 | 0.00 | 0.00 | 0.00 | 50 | |
| 20260503175334 | 72 | 118 | 0.9 | 4.3 | 0.00 | 0.00 | 0.00 | 49 | |
| 20260503174834 | 71 | 168 | 1.7 | 2.6 | 0.00 | 0.00 | 0.00 | 50 | |
| 20260503174333 | 72 | 168 | 0.9 | 4.3 | 0.00 | 0.00 | 0.00 | 51 | |
| 20260503173828 | 71 | 220 | 0.9 | 4.3 | 0.00 | 0.00 | 0.00 | 51 | |
| 20260503173324 | 72 | 351 | 2.6 | 4.3 | 0.00 | 0.00 | 0.00 | 51 | |
| 20260503172821 | 71 | 219 | 0.9 | 2.6 | 0.00 | 0.00 | 0.00 | 51 | |
| 20260503172319 | 72 | 304 | 3.5 | 5.2 | 0.00 | 0.00 | 0.00 | 51 | |
| 20260503171815 | 72 | 150 | 0.0 | 0.9 | 0.00 | 0.00 | 0.00 | 50 | |
| 20260503171312 | 71 | 171 | 0.9 | 5.2 | 0.00 | 0.00 | 0.00 | 53 | |
| 20260503170809 | 70 | 198 | 0.0 | 4.3 | 0.00 | 0.00 | 0.00 | 52 | |
| 20260503170305 | 70 | 166 | 0.9 | 5.2 | 0.00 | 0.00 | 0.00 | 52 | |
| 20260503150658 | 65 | 132 | 0.9 | 0.9 | 0.00 | 0.00 | 0.00 | 63 | |
| 20260503150154 | 64 | 141 | 0.0 | 0.0 | 0.00 | 0.00 | 0.00 | 66 | |
| 20260503140118 | 52 | 177 | 0.0 | 0.0 | 0.00 | 0.00 | 0.00 | 98 | |
| 20260503131048 | 49 | 182 | 0.0 | 0.0 | 0.00 | 0.00 | 0.00 | 98 | |
| 20260503130544 | 49 | 192 | 0.0 | 0.0 | 0.00 | 0.00 | 0.00 | 98 | |
| 20260503110435 | 51 | 225 | 0.0 | 0.0 | 0.00 | 0.00 | 0.00 | 96 | |
| 20260503090326 | 53 | 225 | 0.0 | 0.0 | 0.00 | 0.00 | 0.00 | 93 | |
| 20260503081254 | 53 | 185 | 0.0 | 0.0 | 0.00 | 0.00 | 0.00 | 92 | 1020.2 |
| 20260503080749 | 54 | 189 | 0.0 | 0.0 | 0.00 | 0.00 | 0.00 | 91 | 1020.2 |
| 20260503080247 | 54 | 185 | 0.0 | 0.0 | 0.00 | 0.00 | 0.00 | 91 | 1020.2 |
| 20260503072724 | 54 | 175 | 0.0 | 0.0 | 0.00 | 0.00 | 0.00 | 88 | 1020.1 |
| 20260503072221 | 55 | 175 | 0.0 | 0.0 | 0.00 | 0.00 | 0.00 | 87 | 1020.1 |
| 20260503071717 | 55 | 188 | 0.0 | 0.0 | 0.00 | 0.00 | 0.00 | 86 | 1020.1 |
| 20260503071214 | 55 | 181 | 0.0 | 0.0 | 0.00 | 0.00 | 0.00 | 86 | 1020.1 |
| 20260503070710 | 55 | 177 | 0.0 | 0.0 | 0.00 | 0.00 | 0.00 | 85 | 1020.1 |
| 20260503070209 | 55 | 185 | 0.0 | 0.0 | 0.00 | 0.00 | 0.00 | 85 | 1020.1 |
| 20260503060133 | 57 | 192 | 0.0 | 0.0 | 0.00 | 0.00 | 0.00 | 81 | 1020.1 |
| 20260503055125 | 57 | 174 | 0.0 | 0.0 | 0.00 | 0.00 | 0.00 | 81 | 1020.2 |
| 20260503054620 | 57 | 248 | 0.0 | 0.0 | 0.00 | 0.00 | 0.00 | 80 | 1020.2 |
| 20260503054117 | 57 | 205 | 0.9 | 0.9 | 0.00 | 0.00 | 0.00 | 80 | 1020.0 |
| 20260503053615 | 58 | 206 | 0.0 | 1.7 | 0.00 | 0.00 | 0.00 | 79 | 1020.2 |
| 20260503053114 | 58 | 114 | 0.9 | 0.9 | 0.00 | 0.00 | 0.00 | 78 | 1020.1 |
| 20260503052609 | 58 | 129 | 0.0 | 0.0 | 0.00 | 0.00 | 0.00 | 77 | 1020.2 |
| 20260503052106 | 58 | 186 | 0.0 | 0.0 | 0.00 | 0.00 | 0.00 | 77 | 1020.1 |
| 20260503051601 | 58 | 183 | 0.0 | 0.9 | 0.00 | 0.00 | 0.00 | 78 | 1020.1 |
| 20260503051059 | 59 | 168 | 0.0 | 1.7 | 0.00 | 0.00 | 0.00 | 77 | 1020.2 |
| 20260503050555 | 59 | 274 | 1.7 | 1.7 | 0.00 | 0.00 | 0.00 | 76 | 1020.2 |
| 20260503050053 | 60 | 141 | 0.0 | 0.0 | 0.00 | 0.00 | 0.00 | 75 | 1020.2 |
| 20260503045549 | 60 | 178 | 0.0 | 0.0 | 0.00 | 0.00 | 0.00 | 75 | 1020.1 |
| 20260503045047 | 60 | 189 | 0.9 | 0.9 | 0.00 | 0.00 | 0.00 | 75 | 1020.0 |
| 20260503044543 | 60 | 185 | 0.0 | 0.0 | 0.00 | 0.00 | 0.00 | 75 | 1020.1 |
| 20260503044041 | 60 | 175 | 0.9 | 0.9 | 0.00 | 0.00 | 0.00 | 75 | 1019.9 |
| 20260503043537 | 60 | 176 | 0.0 | 0.0 | 0.00 | 0.00 | 0.00 | 75 | 1020.0 |
| 20260503043034 | 60 | 182 | 0.0 | 0.0 | 0.00 | 0.00 | 0.00 | 74 | 1020.0 |
| 20260503042531 | 61 | 177 | 0.0 | 0.9 | 0.00 | 0.00 | 0.00 | 74 | 1019.9 |
| 20260503042027 | 61 | 185 | 0.9 | 0.9 | 0.00 | 0.00 | 0.00 | 73 | 1019.8 |
| 20260503041524 | 61 | 175 | 0.0 | 0.0 | 0.00 | 0.00 | 0.00 | 73 | 1019.9 |
| 20260503041022 | 62 | 202 | 0.0 | 0.9 | 0.00 | 0.00 | 0.00 | 73 | 1019.9 |
| 20260503040519 | 62 | 176 | 0.0 | 0.0 | 0.00 | 0.00 | 0.00 | 72 | 1019.9 |
| 20260503040016 | 62 | 185 | 0.0 | 0.9 | 0.00 | 0.00 | 0.00 | 71 | 1019.8 |
| 20260503035513 | 63 | 176 | 0.0 | 0.0 | 0.00 | 0.00 | 0.00 | 70 | 1019.8 |
| 20260503035010 | 64 | 200 | 0.0 | 0.9 | 0.00 | 0.00 | 0.00 | 69 | 1019.6 |
| 20260503034508 | 65 | 185 | 0.9 | 0.9 | 0.00 | 0.00 | 0.00 | 67 | 1019.5 |
| 20260503034004 | 65 | 176 | 0.0 | 0.0 | 0.00 | 0.00 | 0.00 | 65 | 1019.4 |
| 20260503033501 | 66 | 173 | 0.0 | 0.0 | 0.00 | 0.00 | 0.00 | 61 | 1019.4 |
| 20260503033000 | 66 | 172 | 0.0 | 0.0 | 0.00 | 0.00 | 0.00 | 58 | 1019.4 |
| 20260503032458 | 67 | 177 | 0.0 | 0.0 | 0.00 | 0.00 | 0.00 | 58 | 1019.3 |
| 20260503031955 | 67 | 175 | 0.9 | 0.9 | 0.00 | 0.00 | 0.00 | 56 | 1019.2 |
| 20260503031453 | 68 | 197 | 0.0 | 0.0 | 0.00 | 0.00 | 0.00 | 55 | 1019.5 |
| 20260503030949 | 68 | 175 | 0.0 | 0.0 | 0.00 | 0.00 | 0.00 | 55 | 1019.2 |
| 20260503030446 | 69 | 167 | 0.0 | 0.0 | 0.00 | 0.00 | 0.00 | 55 | 1019.5 |
| 20260503025943 | 69 | 178 | 0.9 | 1.7 | 0.00 | 0.00 | 0.00 | 54 | 1019.3 |
| 20260503025439 | 69 | 179 | 1.7 | 1.7 | 0.00 | 0.00 | 0.00 | 53 | 1019.4 |
| 20260503024938 | 69 | 171 | 0.0 | 1.7 | 0.00 | 0.00 | 0.00 | 53 | 1019.3 |
| 20260503024433 | 69 | 222 | 0.9 | 2.6 | 0.00 | 0.00 | 0.00 | 52 | 1019.2 |
| 20260503023931 | 70 | 152 | 0.0 | 1.7 | 0.00 | 0.00 | 0.00 | 52 | 1019.3 |
| 20260503023428 | 70 | 156 | 0.0 | 1.7 | 0.00 | 0.00 | 0.00 | 52 | 1019.3 |
| 20260503022925 | 70 | 173 | 2.6 | 2.6 | 0.00 | 0.00 | 0.00 | 52 | 1019.2 |
| 20260503022420 | 71 | 172 | 0.9 | 1.7 | 0.00 | 0.00 | 0.00 | 52 | 1019.4 |
| 20260503021916 | 71 | 176 | 2.6 | 4.3 | 0.00 | 0.00 | 0.00 | 51 | 1019.3 |
| 20260503021412 | 72 | 158 | 0.9 | 0.9 | 0.00 | 0.00 | 0.00 | 52 | 1019.4 |
| 20260503020910 | 72 | 196 | 0.9 | 1.7 | 0.00 | 0.00 | 0.00 | 51 | 1019.3 |
| 20260503020408 | 72 | 171 | 2.6 | 2.6 | 0.00 | 0.00 | 0.00 | 52 | 1019.3 |
| 20260503015904 | 72 | 185 | 1.7 | 1.7 | 0.00 | 0.00 | 0.00 | 52 | 1019.4 |
| 20260503015401 | 73 | 177 | 2.6 | 2.6 | 0.00 | 0.00 | 0.00 | 52 | 1019.3 |
| 20260503014856 | 73 | 168 | 2.6 | 4.3 | 0.00 | 0.00 | 0.00 | 51 | 1019.3 |
| 20260503014354 | 73 | 212 | 1.7 | 2.6 | 0.00 | 0.00 | 0.00 | 52 | 1019.4 |
| 20260503013852 | 74 | 183 | 2.6 | 4.3 | 0.00 | 0.00 | 0.00 | 52 | 1019.4 |
| 20260503013349 | 74 | 187 | 1.7 | 2.6 | 0.00 | 0.00 | 0.00 | 52 | 1019.3 |
| 20260503012846 | 74 | 165 | 1.7 | 4.3 | 0.00 | 0.00 | 0.00 | 53 | 1019.4 |
| 20260503012343 | 76 | 190 | 0.9 | 2.6 | 0.00 | 0.00 | 0.00 | 50 | 1019.4 |
| 20260503011839 | 75 | 172 | 0.0 | 1.7 | 0.00 | 0.00 | 0.00 | 51 | 1019.5 |
| 20260503011331 | 76 | 185 | 1.7 | 1.7 | 0.00 | 0.00 | 0.00 | 50 | 1019.3 |
| 20260503010828 | 79 | 157 | 1.7 | 2.6 | 0.00 | 0.00 | 0.00 | 48 | 1019.7 |
| 20260503010325 | 77 | 151 | 1.7 | 2.6 | 0.00 | 0.00 | 0.00 | 48 | 1019.5 |
| 20260503005821 | 78 | 204 | 0.0 | 0.9 | 0.00 | 0.00 | 0.00 | 46 | 1019.4 |
| 20260503005319 | 81 | 145 | 1.7 | 1.7 | 0.00 | 0.00 | 0.00 | 44 | 1019.7 |
| 20260503004815 | 79 | 183 | 0.0 | 0.0 | 0.00 | 0.00 | 0.00 | 46 | 1019.7 |
| 20260503004313 | 76 | 196 | 0.9 | 2.6 | 0.00 | 0.00 | 0.00 | 49 | 1019.7 |
| 20260503003810 | 77 | 123 | 0.0 | 1.7 | 0.00 | 0.00 | 0.00 | 49 | 1019.7 |
| 20260503003307 | 78 | 123 | 1.7 | 1.7 | 0.00 | 0.00 | 0.00 | 47 | 1019.8 |
| 20260503002804 | 76 | 182 | 1.7 | 2.6 | 0.00 | 0.00 | 0.00 | 50 | 1019.7 |
| 20260503002301 | 77 | 153 | 0.9 | 1.7 | 0.00 | 0.00 | 0.00 | 48 | 1020.0 |
| 20260503001757 | 75 | 185 | 1.7 | 2.6 | 0.00 | 0.00 | 0.00 | 52 | 1020.0 |
| 20260503001253 | 74 | 220 | 0.9 | 1.7 | 0.00 | 0.00 | 0.00 | 51 | 1019.8 |
| 20260503000751 | 74 | 177 | 2.6 | 4.3 | 0.00 | 0.00 | 0.00 | 51 | 1019.9 |
| 20260503000248 | 74 | 183 | 3.5 | 5.2 | 0.00 | 0.00 | 0.00 | 53 | 1020.1 |
| 20260502235745 | 75 | 168 | 3.5 | 5.2 | 0.00 | 0.00 | 0.00 | 53 | 1020.0 |
| 20260502235242 | 74 | 197 | 2.6 | 4.3 | 0.00 | 0.00 | 0.00 | 52 | 1020.1 |
| 20260502234738 | 73 | 198 | 3.5 | 5.2 | 0.00 | 0.00 | 0.00 | 53 | 1020.0 |
| 20260502234236 | 75 | 183 | 4.3 | 5.2 | 0.00 | 0.00 | 0.00 | 51 | 1020.2 |
| 20260502233732 | 78 | 185 | 2.6 | 4.3 | 0.00 | 0.00 | 0.00 | 50 | 1020.2 |
| 20260502233229 | 77 | 166 | 2.6 | 4.3 | 0.00 | 0.00 | 0.00 | 50 | 1020.3 |
| 20260502232725 | 76 | 143 | 2.6 | 6.1 | 0.00 | 0.00 | 0.00 | 51 | 1020.3 |
| 20260502232222 | 76 | 165 | 3.5 | 5.2 | 0.00 | 0.00 | 0.00 | 49 | 1020.3 |
| 20260502231719 | 77 | 181 | 4.3 | 5.2 | 0.00 | 0.00 | 0.00 | 49 | 1020.4 |
| 20260502231217 | 77 | 212 | 0.9 | 4.3 | 0.00 | 0.00 | 0.00 | 48 | 1020.3 |
| 20260502230715 | 78 | 208 | 0.9 | 5.2 | 0.00 | 0.00 | 0.00 | 50 | 1020.6 |
| 20260502230213 | 79 | 153 | 0.9 | 2.6 | 0.00 | 0.00 | 0.00 | 43 | 1020.5 |
| 20260502225708 | 78 | 150 | 0.0 | 4.3 | 0.00 | 0.00 | 0.00 | 46 | 1020.6 |
| 20260502225206 | 77 | 197 | 0.0 | 2.6 | 0.00 | 0.00 | 0.00 | 46 | 1020.6 |
| 20260502224702 | 79 | 70 | 1.7 | 4.3 | 0.00 | 0.00 | 0.00 | 45 | 1020.7 |
| 20260502224159 | 78 | 191 | 0.9 | 1.7 | 0.00 | 0.00 | 0.00 | 45 | 1020.8 |
| 20260502223656 | 76 | 84 | 1.7 | 4.3 | 0.00 | 0.00 | 0.00 | 48 | 1020.9 |
| 20260502223154 | 77 | 42 | 0.9 | 1.7 | 0.00 | 0.00 | 0.00 | 46 | 1020.9 |
| 20260502222652 | 78 | 131 | 0.0 | 5.2 | 0.00 | 0.00 | 0.00 | 46 | 1021.1 |
| 20260502222148 | 77 | 117 | 0.9 | 5.2 | 0.00 | 0.00 | 0.00 | 46 | 1021.1 |
| 20260502221643 | 75 | 66 | 3.5 | 4.3 | 0.00 | 0.00 | 0.00 | 48 | 1021.2 |
| 20260502221141 | 75 | 153 | 1.7 | 1.7 | 0.00 | 0.00 | 0.00 | 47 | 1021.1 |
| 20260502220637 | 74 | 26 | 0.9 | 2.6 | 0.00 | 0.00 | 0.00 | 49 | 1021.1 |
| 20260502220133 | 74 | 74 | 1.7 | 2.6 | 0.00 | 0.00 | 0.00 | 48 | 1021.3 |
| 20260502215631 | 75 | 172 | 1.7 | 2.6 | 0.00 | 0.00 | 0.00 | 48 | 1021.4 |
| 20260502215128 | 75 | 341 | 1.7 | 5.2 | 0.00 | 0.00 | 0.00 | 50 | 1021.7 |
| 20260502214625 | 76 | 171 | 0.9 | 5.2 | 0.00 | 0.00 | 0.00 | 49 | 1021.7 |
| 20260502214122 | 74 | 129 | 0.0 | 2.6 | 0.00 | 0.00 | 0.00 | 49 | 1021.7 |
| 20260502213620 | 73 | 87 | 0.0 | 5.2 | 0.00 | 0.00 | 0.00 | 51 | 1021.8 |